timestamp,wind_dir_avg,wind_spd_avg,wind_spd_max_dir,wind_spd_gust,battery_voltage,lat,long
2021-11-29 00:04:01+00:00,227.0,12.04,238.0,15.81,12.57,47.59359,-54.27349
2021-11-29 00:14:01+00:00,227.0,12.41,234.0,16.34,12.57,47.59359,-54.27349
2021-11-29 00:24:01+00:00,231.0,12.74,234.0,16.36,12.57,47.59359,-54.27349
2021-11-29 00:34:01+00:00,231.0,13.93,234.0,16.8,12.57,47.59359,-54.27349
2021-11-29 00:44:01+00:00,223.0,13.0,237.0,16.04,12.57,47.59359,-54.27349
2021-11-29 00:54:01+00:00,225.0,11.68,235.0,15.92,12.57,47.59359,-54.27349
2021-11-29 01:04:01+00:00,225.0,9.36,224.0,10.52,12.57,47.59359,-54.27349
2021-11-29 01:14:00+00:00,231.0,8.54,234.0,10.88,12.57,47.59359,-54.27349
2021-11-29 01:24:00+00:00,234.0,11.5,238.0,16.09,12.57,47.59359,-54.27349
2021-11-29 01:34:00+00:00,230.0,11.0,237.0,16.43,12.57,47.59359,-54.27349
2021-11-29 01:44:00+00:00,225.0,9.44,216.0,11.66,12.57,47.59359,-54.27349
2021-11-29 01:54:00+00:00,225.0,10.78,239.0,15.66,12.57,47.59359,-54.27349
2021-11-29 02:04:00+00:00,227.0,10.43,238.0,15.92,12.57,47.59359,-54.27349
2021-11-29 02:14:00+00:00,228.0,12.39,232.0,16.38,12.57,47.59359,-54.27349
2021-11-29 02:24:00+00:00,227.0,11.81,223.0,16.83,12.57,47.59359,-54.27349
2021-11-29 02:34:00+00:00,216.0,11.02,227.0,13.82,12.57,47.59359,-54.27349
2021-11-29 02:44:00+00:00,223.0,12.54,233.0,16.55,12.57,47.59359,-54.27349
2021-11-29 02:54:00+00:00,226.0,11.2,232.0,15.76,12.57,47.59359,-54.27349
2021-11-29 03:04:00+00:00,229.0,13.33,227.0,17.23,12.57,47.59359,-54.27349
2021-11-29 03:14:00+00:00,239.0,11.63,246.0,15.1,12.49,47.59359,-54.27349
2021-11-29 03:24:00+00:00,232.0,10.22,245.0,14.98,12.49,47.59359,-54.27349
2021-11-29 03:34:00+00:00,232.0,9.46,240.0,11.42,12.49,47.59359,-54.27349
2021-11-29 03:44:00+00:00,229.0,9.33,230.0,10.39,12.49,47.59359,-54.27349
2021-11-29 03:54:00+00:00,230.0,11.99,237.0,16.54,12.49,47.59359,-54.27349
2021-11-29 04:04:00+00:00,237.0,13.21,239.0,16.48,12.49,47.59359,-54.27349
2021-11-29 04:14:01+00:00,240.0,13.28,240.0,15.85,12.49,47.59359,-54.27349
2021-11-29 04:24:01+00:00,225.0,9.33,225.0,11.06,12.49,47.59359,-54.27349
2021-11-29 04:34:01+00:00,230.0,11.01,244.0,15.53,12.49,47.59359,-54.27349
2021-11-29 04:44:01+00:00,234.0,11.79,239.0,16.21,12.49,47.59359,-54.27349
2021-11-29 04:54:01+00:00,234.0,10.18,244.0,15.43,12.49,47.59359,-54.27349
2021-11-29 05:04:01+00:00,234.0,11.92,243.0,15.66,12.49,47.59359,-54.27349
2021-11-29 05:14:00+00:00,229.0,10.88,239.0,15.99,12.49,47.59359,-54.27349
2021-11-29 05:24:00+00:00,228.0,8.87,227.0,10.8,12.49,47.59359,-54.27349
2021-11-29 05:34:00+00:00,233.0,10.68,248.0,15.42,12.49,47.59359,-54.27349
2021-11-29 05:44:00+00:00,230.0,10.15,241.0,12.53,12.49,47.59359,-54.27349
2021-11-29 05:54:00+00:00,237.0,13.77,239.0,15.95,12.49,47.59359,-54.27349
2021-11-29 06:04:00+00:00,240.0,14.62,241.0,16.31,12.49,47.59359,-54.27349
2021-11-29 06:14:00+00:00,241.0,11.86,249.0,15.11,12.49,47.59359,-54.27349
2021-11-29 06:24:00+00:00,236.0,12.1,241.0,16.13,12.49,47.59359,-54.27349
2021-11-29 06:34:00+00:00,236.0,10.82,245.0,14.5,12.49,47.59359,-54.27349
2021-11-29 06:44:00+00:00,241.0,11.2,248.0,15.03,12.49,47.59359,-54.27349
2021-11-29 06:54:00+00:00,240.0,12.42,244.0,16.01,12.49,47.59359,-54.27349
2021-11-29 07:04:00+00:00,234.0,10.68,245.0,15.19,12.49,47.59359,-54.27349
2021-11-29 07:14:00+00:00,240.0,10.32,248.0,14.56,12.49,47.59359,-54.27349
2021-11-29 07:24:00+00:00,241.0,10.01,248.0,14.15,12.49,47.59359,-54.27349
2021-11-29 07:34:00+00:00,240.0,8.53,247.0,9.98,12.49,47.59359,-54.27349
2021-11-29 07:44:00+00:00,233.0,6.86,237.0,8.2,12.49,47.59359,-54.27349
2021-11-29 07:54:00+00:00,232.0,6.87,236.0,9.13,12.49,47.59359,-54.27349
2021-11-29 08:04:00+00:00,235.0,8.13,237.0,9.49,12.49,47.59359,-54.27349
2021-11-29 08:14:01+00:00,244.0,8.14,248.0,13.65,12.49,47.59359,-54.27349
2021-11-29 08:24:01+00:00,253.0,12.49,258.0,14.78,12.49,47.59359,-54.27349
2021-11-29 08:34:01+00:00,247.0,10.83,253.0,14.12,12.49,47.59359,-54.27349
2021-11-29 08:44:01+00:00,248.0,12.24,250.0,14.8,12.49,47.59359,-54.27349
2021-11-29 08:54:01+00:00,239.0,9.75,249.0,13.58,12.49,47.59359,-54.27349
2021-11-29 09:04:01+00:00,244.0,10.45,248.0,13.99,12.49,47.59359,-54.27349
2021-11-29 09:14:00+00:00,246.0,9.68,250.0,13.81,12.41,47.59359,-54.27349
2021-11-29 09:24:00+00:00,233.0,8.77,241.0,11.3,12.41,47.59359,-54.27349
2021-11-29 09:34:00+00:00,240.0,8.44,245.0,10.63,12.41,47.59359,-54.27349
2021-11-29 09:44:00+00:00,244.0,8.44,244.0,9.1,12.41,47.59359,-54.27349
2021-11-29 09:54:00+00:00,239.0,8.79,241.0,10.36,12.41,47.59359,-54.27349
2021-11-29 10:04:00+00:00,241.0,8.69,253.0,12.73,12.41,47.59359,-54.27349
2021-11-29 10:14:01+00:00,246.0,7.78,246.0,8.57,12.41,47.59359,-54.27349
2021-11-29 10:24:01+00:00,241.0,7.3,244.0,8.53,12.41,47.59359,-54.27349
2021-11-29 10:34:01+00:00,227.0,7.24,229.0,9.65,12.41,47.59359,-54.27349
2021-11-29 10:44:01+00:00,237.0,8.02,236.0,9.07,12.41,47.59359,-54.27349
2021-11-29 10:54:01+00:00,235.0,8.51,231.0,9.75,12.41,47.59359,-54.27349
2021-11-29 11:04:01+00:00,226.0,5.82,243.0,7.88,12.41,47.59359,-54.27349
2021-11-29 11:14:01+00:00,236.0,7.49,238.0,9.15,12.41,47.59359,-54.27349
2021-11-29 11:24:01+00:00,213.0,6.86,216.0,7.9,12.41,47.59359,-54.27349
2021-11-29 11:34:01+00:00,214.0,6.71,226.0,9.05,12.41,47.59359,-54.27349
2021-11-29 11:44:01+00:00,217.0,6.07,243.0,7.7,12.41,47.59359,-54.27349
2021-11-29 11:54:01+00:00,214.0,5.76,219.0,7.17,12.41,47.59359,-54.27349
2021-11-29 12:04:01+00:00,218.0,6.31,233.0,8.62,12.41,47.59359,-54.27349
2021-11-29 12:14:00+00:00,218.0,6.11,237.0,8.72,14.16,47.59359,-54.27349
2021-11-29 12:24:00+00:00,213.0,6.64,196.0,7.77,14.16,47.59359,-54.27349
2021-11-29 12:34:00+00:00,231.0,7.26,233.0,8.91,14.16,47.59359,-54.27349
2021-11-29 12:44:00+00:00,226.0,6.17,230.0,8.43,14.16,47.59359,-54.27349
2021-11-29 12:54:00+00:00,226.0,7.4,251.0,11.24,14.16,47.59359,-54.27349
2021-11-29 13:04:00+00:00,231.0,7.75,235.0,9.85,14.16,47.59359,-54.27349
2021-11-29 13:14:00+00:00,228.0,8.81,235.0,10.09,14.24,47.59359,-54.27349
2021-11-29 13:24:00+00:00,232.0,8.85,243.0,11.87,14.24,47.59359,-54.27349
2021-11-29 13:34:00+00:00,227.0,7.1,236.0,9.07,14.24,47.59359,-54.27349
2021-11-29 13:44:00+00:00,232.0,7.2,236.0,9.37,14.24,47.59359,-54.27349
2021-11-29 13:54:00+00:00,232.0,6.9,232.0,8.93,14.24,47.59359,-54.27349
2021-11-29 14:04:00+00:00,229.0,8.12,247.0,11.35,14.24,47.59359,-54.27349
2021-11-29 14:14:00+00:00,239.0,12.38,239.0,15.16,14.32,47.59359,-54.27349
2021-11-29 14:24:00+00:00,233.0,9.73,243.0,13.01,14.32,47.59359,-54.27349
2021-11-29 14:34:00+00:00,236.0,9.87,247.0,14.62,14.32,47.59359,-54.27349
2021-11-29 14:44:00+00:00,238.0,10.77,245.0,14.26,14.32,47.59359,-54.27349
2021-11-29 14:54:00+00:00,226.0,9.13,248.0,13.53,14.32,47.59359,-54.27349
2021-11-29 15:04:00+00:00,234.0,8.95,251.0,12.35,14.32,47.59359,-54.27349
2021-11-29 15:14:01+00:00,235.0,8.09,236.0,9.76,14.32,47.59359,-54.27349
2021-11-29 15:24:01+00:00,225.0,6.44,223.0,7.49,14.32,47.59359,-54.27349
2021-11-29 15:34:01+00:00,221.0,6.9,234.0,8.75,14.32,47.59359,-54.27349
2021-11-29 15:44:01+00:00,229.0,8.01,231.0,9.83,14.32,47.59359,-54.27349
2021-11-29 15:54:01+00:00,222.0,7.53,225.0,9.81,14.32,47.59359,-54.27349
2021-11-29 16:04:01+00:00,224.0,9.24,238.0,13.51,14.32,47.59359,-54.27349
2021-11-29 16:14:01+00:00,234.0,9.7,246.0,13.07,13.76,47.59359,-54.27349
2021-11-29 16:24:01+00:00,235.0,8.11,232.0,9.24,13.76,47.59359,-54.27349
2021-11-29 16:34:01+00:00,230.0,6.17,234.0,7.54,13.76,47.59359,-54.27349
2021-11-29 16:44:01+00:00,230.0,5.79,229.0,6.63,13.76,47.59359,-54.27349
2021-11-29 16:54:01+00:00,244.0,9.77,251.0,13.7,13.76,47.59359,-54.27349
2021-11-29 17:04:01+00:00,243.0,7.09,254.0,9.14,13.76,47.59359,-54.27349
2021-11-29 17:14:01+00:00,238.0,6.29,246.0,7.23,14.32,47.59359,-54.27349
2021-11-29 17:24:01+00:00,228.0,5.82,225.0,7.01,14.32,47.59359,-54.27349
2021-11-29 17:34:01+00:00,224.0,6.61,226.0,7.28,14.32,47.59359,-54.27349
2021-11-29 17:44:01+00:00,220.0,6.66,219.0,7.85,14.32,47.59359,-54.27349
2021-11-29 17:54:01+00:00,235.0,6.35,239.0,7.1,14.32,47.59359,-54.27349
2021-11-29 18:04:01+00:00,225.0,4.86,231.0,5.72,14.32,47.59359,-54.27349
2021-11-29 18:14:01+00:00,209.0,5.59,210.0,6.88,13.6,47.59359,-54.27349
2021-11-29 18:24:01+00:00,205.0,6.6,209.0,7.53,13.6,47.59359,-54.27349
2021-11-29 18:34:01+00:00,205.0,5.34,212.0,6.46,13.6,47.59359,-54.27349
2021-11-29 18:44:01+00:00,214.0,4.59,221.0,5.08,13.6,47.59359,-54.27349
2021-11-29 18:54:01+00:00,205.0,4.45,209.0,5.26,13.6,47.59359,-54.27349
2021-11-29 19:04:01+00:00,211.0,4.61,208.0,5.16,13.6,47.59359,-54.27349
2021-11-29 19:14:01+00:00,207.0,5.09,203.0,5.66,13.6,47.59359,-54.27349
2021-11-29 19:24:01+00:00,205.0,5.61,207.0,6.15,13.6,47.59359,-54.27349
2021-11-29 19:34:01+00:00,204.0,4.67,205.0,5.41,13.6,47.59359,-54.27349
2021-11-29 19:44:01+00:00,213.0,5.15,216.0,5.68,13.6,47.59359,-54.27349
2021-11-29 19:54:01+00:00,205.0,5.47,207.0,5.91,13.6,47.59359,-54.27349
2021-11-29 20:04:01+00:00,176.0,3.39,175.0,4.06,13.6,47.59359,-54.27349
2021-11-29 20:14:01+00:00,180.0,4.8,179.0,5.25,12.81,47.59359,-54.27349
2021-11-29 20:24:01+00:00,175.0,4.53,177.0,4.97,12.81,47.59359,-54.27349
2021-11-29 20:34:01+00:00,180.0,3.66,181.0,4.9,12.81,47.59359,-54.27349
2021-11-29 20:44:01+00:00,164.0,3.95,162.0,4.31,12.81,47.59359,-54.27349
2021-11-29 20:54:01+00:00,171.0,2.82,171.0,3.2,12.81,47.59359,-54.27349
2021-11-29 21:04:01+00:00,139.0,2.57,123.0,3.56,12.81,47.59359,-54.27349
2021-11-29 21:14:01+00:00,122.0,3.96,114.0,5.83,12.65,47.59359,-54.27349
2021-11-29 21:24:01+00:00,151.0,2.49,125.0,3.94,12.65,47.59359,-54.27349
2021-11-29 21:34:01+00:00,102.0,4.26,100.0,5.99,12.65,47.59359,-54.27349
2021-11-29 21:44:01+00:00,90.0,5.89,85.0,6.6,12.65,47.59359,-54.27349
2021-11-29 21:54:01+00:00,107.0,5.56,108.0,6.2,12.65,47.59359,-54.27349
2021-11-29 22:04:01+00:00,77.0,3.05,84.0,6.17,12.65,47.59359,-54.27349
2021-11-29 22:14:01+00:00,95.0,5.64,107.0,6.35,12.57,47.59359,-54.27349
2021-11-29 22:24:01+00:00,96.0,4.47,99.0,6.19,12.57,47.59359,-54.27349
2021-11-29 22:34:01+00:00,116.0,4.15,115.0,6.14,12.57,47.59359,-54.27349
2021-11-29 22:44:01+00:00,96.0,4.58,79.0,6.18,12.57,47.59359,-54.27349
2021-11-29 22:54:01+00:00,100.0,3.81,108.0,6.07,12.57,47.59359,-54.27349
2021-11-29 23:04:01+00:00,110.0,4.31,104.0,6.46,12.57,47.59359,-54.27349
2021-11-29 23:14:01+00:00,92.0,5.89,97.0,6.82,12.57,47.59359,-54.27349
2021-11-29 23:24:01+00:00,97.0,4.65,114.0,6.65,12.57,47.59359,-54.27349
2021-11-29 23:34:01+00:00,86.0,4.76,77.0,6.68,12.57,47.59359,-54.27349
2021-11-29 23:44:01+00:00,84.0,5.86,86.0,6.37,12.57,47.59359,-54.27349
2021-11-29 23:54:01+00:00,75.0,5.38,73.0,6.81,12.57,47.59359,-54.27349
